CAPE
1 1 0 1 1 0 0 0 0 0 0 0 0 0 0 0 0 0 0 0 1 1590 999 574 761 716 478 525 636 453 517 14 36 47 172 20 109 69 126 336 355 594 1242 648 502
1 1 1 1 0 0 0 0 0 0 0 0 0 0 0 0 0 0 0 168 325 1216 0 982 685 478 535 399 163 336 295 50 9 26 138 62 127 327 258 431 414 1417 1108 711 688
1 1 1 0 0 0 0 0 0 0 0 0 0 0 0 0 0 0 0 335 368 510 0 580 440 359 525 139 31 374 237 65 38 39 60 146 31 487 127 429 414 1426 1059 835 797
1 0 0 0 0 0 0 0 0 0 0 0 0 0 0 0 0 0 14 84 519 8 108 668 332 533 280 413 333 213 57 100 0 69 86 324 330 166 37 3 255 608 1052 814 763
1 0 0 0 0 0 0 0 0 0 0 0 0 0 0 0 0 0 613 287 0 0 750 395 767 22 331 596 309 253 61 50 86 73 227 145 184 300 115 96 293 494 628 1128 1071
0 0 0 0 0 0 0 0 0 0 0 0 0 0 0 0 0 0 0 0 0 180 769 630 799 105 200 106 11 452 172 221 27 279 63 280 290 541 252 183 394 579 446 594 1038
0 0 0 0 0 0 0 0 0 0 0 0 0 0 0 0 0 0 0 0 0 190 777 871 607 723 895 707 487 550 319 68 296 188 383 202 460 564 423 356 504 600 404 474 929
0 0 0 0 0 0 0 0 0 0 0 0 0 0 0 0 0 0 0 0 1 87 299 812 717 758 220 618 855 349 318 344 210 414 443 195 497 368 467 487 488 563 556 593 400
1 1 0 0 0 0 0 0 0 0 0 0 0 0 0 0 0 0 0 0 0 75 225 649 907 933 1020 761 793 407 43 168 235 489 605 313 873 467 570 518 666 643 659 619 696
3 1 0 0 0 0 0 0 0 0 0 0 0 0 0 0 0 0 0 1 16 98 213 403 401 579 989 800 823 736 411 590 665 702 315 384 428 450 486 608 718 813 720 601 701
2 1 0 0 0 0 0 0 0 0 0 0 0 0 0 0 0 0 0 24 53 148 226 251 318 420 510 695 602 681 546 751 714 775 543 419 364 402 516 541 627 760 909 758 609
3 1 0 0 0 0 0 0 0 0 0 0 0 0 0 0 0 0 0 0 1 93 142 221 301 281 602 484 712 691 939 557 591 614 587 351 348 282 342 297 424 621 726 1166 679
2 2 0 0 0 0 0 0 0 0 0 0 0 0 0 0 0 0 0 0 0 0 17 111 252 230 605 601 568 532 430 371 287 587 693 561 703 725 464 178 188 319 535 880 1049
3 2 0 0 0 0 0 0 0 0 0 0 0 0 0 0 0 0 0 0 0 0 0 1 0 97 336 462 602 439 450 438 289 236 152 545 525 138 731 374 357 231 338 369 1352
3 1 0 0 0 0 0 0 0 0 0 0 0 0 0 0 0 0 0 0 0 0 0 0 0 0 206 349 193 472 512 491 435 362 198 139 460 353 415 280 31 155 285 321 1082
1 0 1 0 0 0 0 0 0 0 0 0 0 0 0 0 0 0 0 0 0 0 0 0 0 0 23 145 118 355 535 460 449 192 223 216 254 372 443 125 0 141 378 298 324
0 0 5 0 0 0 0 0 0 0 0 0 0 0 0 0 0 0 0 0 0 0 0 0 0 0 0 46 123 381 337 271 361 377 491 264 111 269 214 229 204 102 260 428 376
0 0 0 0 0 0 0 0 0 0 0 0 0 0 0 0 0 0 0 0 0 0 0 0 0 0 27 2 40 203 237 357 458 507 684 174 76 85 57 112 60 15 152 340 391
0 0 0 0 0 0 0 0 0 0 0 0 0 0 0 0 0 0 0 0 0 0 0 0 0 3 0 24 9 52 174 206 123 234 223 203 83 56 386 116 50 10 173 595 524
0 0 0 0 0 0 0 0 0 0 0 0 0 0 0 0 0 0 0 0 0 0 0 0 0 8 12 7 49 102 488 427 216 484 458 366 486 373 503 88 0 136 47 429 756
0 0 0 0 0 0 0 0 0 0 0 0 0 0 0 0 0 0 0 0 0 0 0 0 0 1 35 6 41 121 398 190 198 454 325 370 404 227 69 12 0 37 22 61 849
0 0 0 0 0 0 0 0 0 0 0 0 0 0 0 1 13 0 0 0 0 0 0 0 0 0 28 20 5 55 161 490 824 357 159 392 193 232 60 0 2 9 7 66 262
0 0 0 0 0 0 0 0 0 0 0 0 0 0 0 0 0 34 0 0 0 0 0 0 0 0 0 1 0 0 6 32 157 72 290 269 401 19 8 114 128 4 1 470 550
0 0 0 0 0 0 0 0 0 0 0 0 0 0 0 0 0 14 25 0 0 0 248 0 0 0 0 0 12 3 54 43 1 158 287 121 176 92 22 82 166 38 162 156 843
0 0 1 0 0 0 0 0 0 0 0 0 0 0 0 0 0 4 21 12 0 0 0 0 0 0 0 0 0 54 43 0 0 0 48 8 1 211 9 51 25 2 103 63 242
0 0 0 0 0 0 0 0 0 0 0 0 0 0 0 0 0 67 18 52 0 0 0 0 0 0 0 0 0 2 1 0 0 0 0 0 0 98 202 99 5 0 84 13 380
0 0 0 0 0 0 0 0 0 0 0 0 0 0 0 0 0 20 25 33 8 0 0 0 0 0 0 0 0 0 0 0 0 0 0 0 0 1 190 221 30 32 428 696 469
CIN
-0 -0 -0 -0 -0 -0 -0 -0 -0 -0 -0 -0 -0 -0 -0 -0 -0 -0 -0 -0 -56 -376 -442 -121 -54 -35 -43 -46 -12 -263 -33 -31 -11 -26 -0 -24 -15 -35 -34 -3 -7 -3 -23 -66 -48
-0 -0 -0 -0 -0 -0 -0 -0 -0 -0 -0 -0 -0 -0 -0 -0 -0 -0 -0 -493 -517 -430 -0 -22 -5 -27 -15 -12 -95 -43 -29 -35 -10 -19 -2 -17 -15 -1 -4 -2 -11 -0 -5 -34 -39
-0 -0 -0 -0 -0 -0 -0 -0 -0 -0 -0 -0 -0 -0 -0 -0 -0 -0 -0 -527 -552 -503 -0 -56 -17 -26 -6 -16 -126 -47 -3 -31 -11 -25 -11 -0 -7 -2 -19 -3 -5 -4 -3 -28 -46
-0 -0 -0 -0 -0 -0 -0 -0 -0 -0 -0 -0 -0 -0 -0 -0 -0 -0 -91 -750 -553 -22 -183 -24 -41 -23 -227 -63 -4 -2 -8 -4 -0 -7 -21 -6 -3 -10 -55 -51 -11 -3 -9 -32 -34
-0 -0 -0 -0 -0 -0 -0 -0 -0 -0 -0 -0 -0 -0 -0 -0 -0 -0 -595 -436 -0 -0 -72 -7 -10 -378 -178 -44 -13 -27 -39 -50 -35 -43 -4 -10 -3 -3 -35 -48 -24 -25 -1 -3 -24
-0 -0 -0 -0 -0 -0 -0 -0 -0 -0 -0 -0 -0 -0 -0 -0 -0 -0 -0 -0 -0 -215 -17 -2 -22 -342 -168 -199 -277 -31 -2 -18 -95 -5 -37 -6 -2 -28 -26 -33 -25 -22 -17 -3 -11
-0 -0 -0 -0 -0 -0 -0 -0 -0 -0 -0 -0 -0 -0 -0 -0 -0 -0 -0 -0 -0 -190 -4 -1 -9 -5 -11 -36 -67 -7 -42 -18 -1 -1 -18 -2 -3 -0 -10 -37 -11 -11 -40 -7 -2
-0 -0 -0 -0 -0 -0 -0 -0 -0 -0 -0 -0 -0 -0 -0 -0 -0 -0 -0 -0 -180 -281 -124 -4 -19 -15 -481 -227 -6 -1 -37 -112 -124 -3 -6 -10 -28 -74 -3 -13 -25 -19 -12 -7 -25
-0 -0 -0 -0 -0 -0 -0 -0 -0 -0 -0 -0 -0 -0 -0 -0 -0 -0 -0 -0 -0 -316 -179 -40 -25 -5 -7 -4 -9 -74 -249 -126 -113 -3 -1 -2 -5 -29 -2 -12 -19 -23 -26 -20 -8
-0 -0 -0 -0 -0 -0 -0 -0 -0 -0 -0 -0 -0 -0 -0 -0 -0 -0 -0 -71 -444 -316 -184 -80 -56 -10 -2 -3 -34 -49 -120 -34 -14 -56 -2 -0 -1 -5 -3 -3 -1 -5 -26 -36 -18
-0 -0 -0 -0 -0 -0 -0 -0 -0 -0 -0 -0 -0 -0 -0 -0 -0 -0 -0 -455 -388 -294 -176 -124 -75 -17 -2 -18 -43 -2 -12 -10 -1 -1 -5 -2 -0 -1 -2 -7 -2 -1 -7 -26 -24
-0 -0 -0 -0 -0 -0 -0 -0 -0 -0 -0 -0 -0 -0 -0 -0 -0 -0 -0 -0 -151 -302 -243 -139 -83 -31 -4 -11 -12 -6 -2 -1 -1 -2 -9 -12 -4 -4 -2 -2 -2 -7 -3 -13 -30
-0 -0 -0 -0 -0 -0 -0 -0 -0 -0 -0 -0 -0 -0 -0 -0 -0 -0 -0 -0 -0 -0 -290 -210 -83 -41 -11 -0 -13 -16 -0 -10 -7 -3 -1 -2 -11 -5 -9 -38 -19 -7 -1 -8 -28
-0 -0 -0 -0 -0 -0 -0 -0 -0 -0 -0 -0 -0 -0 -0 -0 -0 -0 -0 -0 -0 -0 -0 -13 -48 -74 -29 -11 -3 -2 -29 -12 -22 -17 -50 -5 -2 -28 -5 -1 -2 -5 -3 -1 -17
-0 -0 -0 -0 -0 -0 -0 -0 -0 -0 -0 -0 -0 -0 -0 -0 -0 -0 -0 -0 -0 -0 -0 -0 -0 -0 -27 -16 -42 -4 -9 -22 -20 -9 -29 -23 -0 -4 -24 -8 -194 -44 -3 -4 -23
-0 -0 -0 -0 -0 -0 -0 -0 -0 -0 -0 -0 -0 -0 -0 -0 -0 -0 -0 -0 -0 -0 -0 -0 -0 -0 -142 -81 -100 -20 -12 -15 -8 -53 -23 -131 -3 -5 -8 -193 -0 -63 -9 -43 -16
-0 -0 -0 -0 -0 -0 -0 -0 -0 -0 -0 -0 -0 -0 -0 -0 -0 -0 -0 -0 -0 -0 -0 -0 -0 -0 -0 -116 -56 -15 -17 -26 -13 -6 -12 -242 -137 -71 -97 -75 -64 -22 -5 -47 -27
-0 -0 -0 -0 -0 -0 -0 -0 -0 -0 -0 -0 -0 -0 -0 -0 -0 -0 -0 -0 -0 -0 -0 -0 -0 -0 -146 -122 -101 -5 -10 -5 -2 -1 -4 -353 -278 -312 -267 -11 -7 -8 -4 -14 -16
-0 -0 -0 -0 -0 -0 -0 -0 -0 -0 -0 -0 -0 -0 -0 -0 -0 -0 -0 -0 -0 -0 -0 -0 -0 -4 -6 -130 -149 -42 -7 -2 -7 -10 -16 -249 -161 -408 -52 -155 -48 -8 -4 -4 -21
-0 -0 -0 -0 -0 -0 -0 -0 -0 -0 -0 -0 -0 -0 -0 -0 -0 -0 -0 -0 -0 -0 -0 -0 -0 -3 -2 -27 -100 -11 -104 -42 -104 -6 -0 -1 -14 -84 -143 -249 -0 -80 -1 -3 -10
-0 -0 -0 -0 -0 -0 -0 -0 -0 -0 -0 -0 -0 -0 -0 -0 -0 -0 -0 -0 -0 -0 -0 -0 -0 -1 -1 -1 -40 -3 -134 -400 -393 -82 -38 -69 -70 -151 -210 -82 -18 -133 -6 -10 -8
-0 -0 -0 -0 -0 -0 -0 -0 -0 -0 -0 -0 -0 -0 -0 -1 -1 -0 -0 -0 -0 -0 -0 -0 -0 -0 -3 -2 -2 -8 -0 -5 -8 -18 -68 -67 -33 -135 -151 -0 -240 -101 -19 -16 -26
-0 -0 -0 -0 -0 -0 -0 -0 -0 -0 -0 -0 -0 -0 -0 -0 -0 -0 -0 -0 -0 -0 -0 -0 -0 -0 -0 -0 -0 -0 -56 -17 -2 -2 -0 -0 -33 -110 -47 -78 -52 -1 -0 -5 -21
-0 -0 -0 -0 -0 -0 -0 -0 -0 -0 -0 -0 -0 -0 -0 -0 -0 -1 -0 -0 -0 -0 -156 -0 -0 -0 -0 -0 -5 -4 -33 -35 -7 -0 -12 -134 -153 -355 -316 -153 -107 -12 -3 -10 -15
-0 -0 -1 -0 -0 -0 -0 -0 -0 -0 -0 -0 -0 -0 -0 -0 -0 -0 -1 -1 -0 -0 -0 -0 -0 -0 -0 -0 -0 -4 -17 -0 -0 -0 -21 -141 -124 -206 -67 -96 -131 -58 -6 -2 -5
-0 -0 -0 -0 -0 -0 -0 -0 -0 -0 -0 -0 -0 -0 -0 -0 -0 -1 -2 -2 -0 -0 -0 -0 -0 -0 -0 -0 -0 -12 -6 -0 -0 -0 -0 -0 -0 -17 -119 -132 -261 -0 -59 -1 -8
-1 -0 -0 -0 -0 -0 -0 -0 -0 -0 -0 -0 -0 -0 -0 -0 -7 -15 -8 -5 -2 -0 -0 -0 -0 -0 -0 -0 -0 -0 -0 -0 -0 -0 -0 -0 -0 -0 -35 -79 -136 -48 -5 -14 -15
Wind_Speed
14 14 14 13 14 14 14 14 15 14 14 15 15 15 15 17 20 7 11 2 4 12 5 15 13 11 6 12 11 21 8 7 9 4 12 9 14 7 12 8 10 4 20 24 21
15 14 15 14 14 14 15 15 15 15 15 16 15 15 15 15 10 16 5 8 11 10 11 14 9 7 11 11 6 5 1 6 7 4 12 5 11 9 5 12 10 19 22 24 18
15 15 15 15 14 15 16 16 15 16 16 16 16 15 14 14 10 2 6 9 11 10 16 20 8 10 13 4 11 6 4 9 14 10 11 10 7 14 5 10 13 23 20 22 22
14 15 15 16 15 15 16 17 17 16 17 16 16 15 14 7 3 6 7 8 7 9 13 13 10 11 7 9 14 7 9 9 10 2 8 13 12 11 12 7 12 19 25 22 19
15 15 15 16 17 16 15 17 19 17 16 16 14 13 9 9 9 8 9 6 8 9 14 10 5 8 11 10 18 7 9 1 7 3 14 4 9 7 12 8 13 18 18 25 19
15 15 16 16 17 17 17 16 18 19 15 14 12 11 7 13 11 9 11 11 12 13 16 8 10 22 10 6 2 19 5 11 7 5 5 4 11 11 8 10 14 16 14 16 23
15 15 16 17 18 18 18 18 18 19 17 12 9 7 11 16 1 12 11 13 14 14 15 6 5 10 14 11 19 8 10 7 6 3 3 6 8 6 15 11 12 14 14 13 17
15 16 17 17 18 20 20 18 19 18 17 10 5 9 9 9 7 11 12 13 14 13 16 9 2 8 20 17 13 9 11 8 18 5 7 5 7 9 15 14 12 13 11 12 11
15 16 16 18 18 19 20 22 21 15 14 9 7 10 15 4 13 12 14 15 15 12 10 9 7 13 8 7 6 8 2 8 12 13 4 5 5 6 15 15 16 15 14 14 13
16 15 15 17 17 18 24 24 11 10 8 9 12 9 18 16 14 18 16 16 15 13 12 10 9 13 15 8 4 8 4 14 10 8 8 8 11 13 15 15 16 16 17 16 17
17 16 16 16 17 17 15 6 6 8 13 13 15 13 6 17 14 18 16 16 14 14 15 15 12 15 9 3 11 7 2 14 6 8 1 7 10 10 6 15 13 16 18 18 17
17 17 17 19 18 16 10 8 11 9 10 24 21 19 18 9 8 13 17 17 17 17 16 17 15 20 7 5 6 8 15 9 3 6 5 10 12 13 12 14 15 17 16 21 17
17 18 18 21 23 9 11 16 10 11 9 16 24 20 16 8 16 18 20 20 17 19 19 19 20 15 12 11 11 18 12 2 10 2 11 11 17 19 14 14 13 12 15 21 23
18 18 19 24 7 10 12 11 9 10 8 15 24 20 20 14 19 17 22 21 17 20 19 18 21 18 12 13 18 13 10 7 7 9 11 3 11 9 9 6 10 10 15 14 25
17 17 18 8 13 7 8 7 5 6 8 8 20 10 17 19 7 23 22 22 23 20 17 17 19 19 12 13 8 3 5 7 13 13 12 16 12 4 8 10 14 15 6 5 23
18 16 17 5 8 14 13 8 7 8 13 9 10 12 21 24 21 14 21 19 21 23 20 19 18 17 20 11 16 13 8 9 14 11 12 16 15 12 2 8 6 24 8 3 3
19 16 9 10 6 13 9 8 7 11 15 13 17 15 19 20 22 20 21 22 21 20 21 21 20 18 17 11 16 17 13 11 11 8 3 15 16 8 6 18 18 3 8 6 4
21 20 9 11 10 11 9 9 12 13 25 10 15 17 20 21 21 22 20 21 23 26 16 18 18 22 11 17 17 17 17 10 16 4 5 7 8 9 27 3 4 10 10 9 4
30 7 6 8 15 10 9 13 10 18 15 19 11 16 17 19 14 24 19 19 22 24 24 17 20 17 21 16 17 19 20 10 22 7 9 10 20 28 7 21 9 4 10 14 9
8 11 12 14 14 10 10 20 18 23 11 16 11 12 16 21 23 21 20 19 22 25 26 23 19 20 22 19 17 21 7 6 10 14 13 13 7 2 9 17 6 33 7 10 12
6 7 11 11 11 9 15 20 22 25 13 8 12 15 14 15 22 19 23 18 22 21 21 23 22 16 17 14 18 13 9 5 1 11 2 7 3 9 5 3 14 20 4 4 14
8 9 10 10 9 10 15 23 19 24 10 11 16 18 17 14 16 20 19 19 18 21 24 23 19 16 16 16 13 18 18 22 15 8 7 10 6 24 13 9 16 28 12 10 8
7 7 8 10 9 13 17 22 24 24 22 8 16 15 17 11 15 15 18 19 14 16 19 19 18 17 15 15 16 13 16 19 17 17 16 8 7 7 12 14 15 8 7 7 5
7 5 6 9 13 19 17 19 21 24 25 15 15 17 14 13 16 14 11 16 14 12 7 16 19 17 14 16 15 19 17 17 19 14 13 7 4 16 18 12 17 12 10 7 7
7 9 7 9 14 18 19 21 19 21 23 15 15 15 8 14 16 16 11 14 10 8 5 14 17 20 21 22 19 14 16 16 16 19 18 22 32 30 15 15 17 26 11 7 8
7 7 12 14 13 20 18 20 19 18 20 17 19 12 13 16 16 14 11 12 14 11 12 16 14 16 20 18 19 15 11 8 15 13 14 16 16 2 20 13 8 13 20 6 11
8 11 8 10 13 13 14 19 18 16 17 18 19 15 17 20 13 12 11 16 16 14 16 16 14 16 15 16 15 16 13 14 15 11 10 11 12 9 9 15 18 22 4 13 11
Wind_Direction
2 360 358 1 351 346 342 343 340 339 335 329 330 327 325 325 307 231 259 173 156 169 208 254 227 243 218 259 205 165 197 109 125 245 117 123 97 74 118 109 59 106 140 146 167
358 359 355 356 353 346 340 340 339 335 332 327 327 325 325 328 292 266 211 126 145 176 225 231 221 249 243 212 15 309 233 126 158 168 121 134 90 145 154 133 115 94 123 141 140
357 356 353 350 353 346 338 336 337 332 328 324 323 324 323 315 276 226 148 161 176 205 253 292 300 293 272 326 202 224 235 80 93 145 108 110 99 109 44 98 146 128 139 143 142
357 352 351 346 346 345 338 332 331 330 322 320 318 322 317 275 292 90 159 183 185 239 256 263 261 8 341 281 159 268 44 86 98 41 106 118 76 68 66 55 111 127 142 143 158
356 351 348 344 340 340 336 331 325 324 319 313 314 323 302 233 256 131 144 166 188 216 249 225 344 87 221 290 40 318 102 110 97 135 100 141 101 55 89 95 116 129 152 152 158
354 350 346 341 338 334 332 326 321 317 313 308 307 310 250 250 94 141 170 175 201 221 234 231 224 181 218 87 19 264 358 122 160 141 127 118 128 116 126 117 130 140 164 174 160
351 348 345 338 335 330 325 320 316 309 305 302 294 276 263 245 72 159 182 202 223 228 250 219 312 344 346 317 200 243 345 172 106 107 95 309 1 39 134 139 148 160 168 183 175
350 346 342 336 333 327 320 313 309 301 296 297 270 250 261 240 230 226 197 209 230 240 269 286 225 269 113 264 264 222 20 49 302 291 110 148 244 245 145 151 164 166 178 172 203
344 342 337 332 331 324 317 307 300 284 278 281 233 225 257 129 217 225 206 217 218 234 251 299 275 271 267 271 342 24 332 266 269 254 193 214 187 194 162 174 174 179 178 179 182
336 336 333 330 326 324 318 292 280 303 226 236 263 254 251 223 203 210 209 219 213 223 230 236 247 249 241 202 198 182 193 246 177 262 189 229 235 197 183 190 182 184 179 183 177
334 332 329 325 322 325 329 268 207 197 231 222 188 217 99 224 180 202 193 214 210 225 225 214 235 250 226 116 217 233 225 269 216 178 210 259 263 259 210 192 201 192 183 184 187
330 328 327 321 316 315 289 254 25 339 294 224 253 233 271 141 185 196 192 207 205 218 224 239 219 253 82 203 298 261 241 254 305 99 269 266 269 275 234 213 219 197 196 183 183
328 326 326 318 313 276 233 259 336 309 269 263 213 229 219 189 215 206 198 207 210 221 225 235 236 220 187 202 214 243 241 91 305 224 252 249 268 268 225 227 232 235 204 189 177
325 324 326 325 290 333 250 233 237 265 273 247 200 215 222 197 233 235 195 212 224 223 231 243 247 256 198 242 224 257 93 275 276 284 273 195 271 275 178 213 200 216 214 212 174
321 320 318 337 312 264 29 296 289 243 271 167 167 160 199 196 218 206 190 213 223 221 231 234 239 252 237 231 260 191 206 226 259 270 285 271 241 176 150 214 8 290 57 244 170
313 313 324 266 211 256 311 297 236 228 243 138 129 202 196 204 232 203 204 205 233 241 234 252 248 232 257 210 235 188 177 223 255 255 252 348 280 69 76 134 155 264 114 337 252
305 300 286 307 230 328 228 243 212 236 238 155 166 195 211 196 214 228 191 196 217 221 235 234 242 248 229 263 237 224 237 254 242 223 282 31 342 306 277 176 203 243 132 138 290
305 300 249 230 249 247 268 217 237 211 246 148 182 189 206 206 207 215 194 213 208 232 225 228 222 234 177 233 247 243 250 251 266 244 341 45 209 269 298 66 145 198 158 128 196
307 233 237 228 223 248 231 216 214 243 200 237 178 183 201 218 206 225 202 215 217 220 234 231 229 206 231 205 244 243 238 274 277 226 254 162 239 187 305 6 341 127 161 159 140
308 284 239 188 172 219 225 236 233 257 318 304 212 219 216 201 209 202 203 223 224 212 232 247 262 219 203 205 215 243 32 34 326 291 249 257 88 36 11 70 328 282 14 148 140
248 231 105 138 178 215 222 229 242 273 298 277 286 275 227 232 203 214 215 217 209 222 212 244 258 271 219 189 214 216 124 114 1 268 281 352 48 355 79 113 277 285 125 45 145
278 257 141 161 193 217 228 237 247 261 212 254 273 285 283 256 223 213 232 215 205 208 213 226 250 257 214 199 216 250 237 192 211 170 184 194 206 204 146 156 244 262 43 50 9
261 208 154 201 222 224 226 239 244 257 258 212 244 254 281 282 270 249 207 239 213 203 220 205 235 257 250 228 192 220 247 265 231 251 240 225 137 7 182 254 228 102 106 120 68
272 204 152 212 247 265 240 220 237 242 260 245 242 250 244 267 266 268 222 233 207 183 337 222 223 233 248 242 202 208 221 238 255 260 284 342 295 25 327 325 335 345 107 93 141
250 254 334 180 221 235 256 261 222 233 234 240 251 254 243 251 239 250 218 224 145 105 246 232 220 232 233 266 274 218 215 220 250 277 284 188 247 186 175 270 22 321 304 116 135
291 317 351 304 265 204 228 254 263 229 238 207 247 237 247 262 255 247 233 238 169 165 226 215 236 240 249 251 261 264 265 262 216 239 265 280 298 261 146 128 109 272 288 24 58
2 333 290 288 281 275 215 232 248 267 226 236 213 237 242 240 289 345 341 294 170 198 198 222 216 236 240 235 258 258 250 252 263 256 262 253 265 293 163 155 152 236 10 38 25